| time (UTC) | temp F | wind direction | speed knots | gust knots | rain 1hr in | rain 24hr in | rain mn in | humidity % | barometer mb |
| 20260503214029 | 63 | 0 | 10.4 | 18.2 | 0.00 | 0.00 | 0.00 | 75 | 1010.4 |
| 20260503213028 | 63 | 0 | 11.3 | 15.6 | 0.00 | 0.00 | 0.00 | 74 | 1010.4 |
| 20260503212028 | 63 | 0 | 17.4 | 26.9 | 0.00 | 0.00 | 0.00 | 74 | 1010.5 |
| 20260503211028 | 63 | 0 | 12.2 | 16.5 | 0.00 | 0.00 | 0.00 | 75 | 1010.3 |
| 20260503210028 | 64 | 0 | 8.7 | 13.0 | 0.00 | 0.00 | 0.00 | 75 | 1010.2 |
| 20260503205028 | 64 | 0 | 8.7 | 11.3 | 0.00 | 0.00 | 0.00 | 73 | 1010.1 |
| 20260503204028 | 65 | 0 | 11.3 | 14.8 | 0.00 | 0.00 | 0.00 | 69 | 1010.0 |
| 20260503203029 | 65 | 0 | 13.9 | 20.0 | 0.00 | 0.00 | 0.00 | 63 | 1009.9 |
| 20260503202028 | 65 | 0 | 10.4 | 14.8 | 0.00 | 0.00 | 0.00 | 61 | 1009.8 |
| 20260503201029 | 65 | 0 | 11.3 | 16.5 | 0.00 | 0.00 | 0.00 | 62 | 1009.8 |
| 20260503200028 | 65 | 0 | 9.6 | 13.9 | 0.00 | 0.00 | 0.00 | 65 | 1009.8 |
| 20260503195028 | 65 | 0 | 5.2 | 9.6 | 0.00 | 0.00 | 0.00 | 67 | 1009.6 |
| 20260503194029 | 65 | 0 | 4.3 | 7.0 | 0.00 | 0.00 | 0.00 | 66 | 1009.5 |
| 20260503193028 | 66 | 0 | 7.0 | 10.4 | 0.00 | 0.00 | 0.00 | 64 | 1009.4 |
| 20260503192028 | 67 | 0 | 11.3 | 16.5 | 0.00 | 0.00 | 0.00 | 64 | 1009.4 |
| 20260503191028 | 69 | 0 | 10.4 | 18.2 | 0.00 | 0.00 | 0.00 | 60 | 1009.4 |
| 20260503190028 | 70 | 0 | 9.6 | 13.9 | 0.00 | 0.00 | 0.00 | 49 | 1009.1 |
| 20260503185028 | 70 | 0 | 6.1 | 11.3 | 0.00 | 0.00 | 0.00 | 49 | 1008.8 |
| 20260503184028 | 70 | 0 | 6.1 | 10.4 | 0.00 | 0.00 | 0.00 | 48 | 1008.6 |
| 20260503183028 | 70 | 0 | 7.8 | 15.6 | 0.00 | 0.00 | 0.00 | 49 | 1008.4 |
| 20260503182028 | 70 | 0 | 7.0 | 13.9 | 0.00 | 0.00 | 0.00 | 47 | 1008.3 |
| 20260503181028 | 71 | 0 | 7.0 | 12.2 | 0.00 | 0.00 | 0.00 | 46 | 1008.2 |
| 20260503180028 | 71 | 0 | 7.0 | 13.9 | 0.00 | 0.00 | 0.00 | 46 | 1008.2 |
| 20260503175048 | 71 | 0 | 7.8 | 12.2 | 0.00 | 0.00 | 0.00 | 46 | 1008.1 |
| 20260503174028 | 72 | 0 | 7.8 | 13.9 | 0.00 | 0.00 | 0.00 | 45 | 1008.1 |
| 20260503173028 | 72 | 0 | 8.7 | 17.4 | 0.00 | 0.00 | 0.00 | 43 | 1008.3 |
| 20260503172028 | 73 | 0 | 8.7 | 20.9 | 0.00 | 0.00 | 0.00 | 44 | 1008.1 |
| 20260503171028 | 73 | 0 | 7.0 | 16.5 | 0.00 | 0.00 | 0.00 | 47 | 1008.2 |
| 20260503160108 | 76 | 0 | 7.0 | 12.2 | 0.00 | 0.00 | 0.00 | 45 | 1008.3 |
| 20260503131027 | 76 | 203 | 1.7 | 4.3 | 0.00 | 0.00 | 0.00 | 58 | 1010.4 |
| 20260503081029 | 71 | 0.0 | 0.0 | 0.00 | 0.00 | 0.00 | 67 | 1012.8 | |
| 20260503072028 | 67 | 0.0 | 0.0 | 0.00 | 0.00 | 0.00 | 71 | 1013.1 | |
| 20260503071049 | 65 | 0.0 | 0.0 | 0.00 | 0.00 | 0.00 | 73 | 1013.0 | |
| 20260503055029 | 57 | 0.0 | 0.0 | 0.00 | 0.00 | 0.00 | 82 | 1012.9 | |
| 20260503054108 | 58 | 0.0 | 0.0 | 0.00 | 0.00 | 0.00 | 82 | 1012.9 | |
| 20260503053049 | 58 | 0.0 | 0.0 | 0.00 | 0.00 | 0.00 | 81 | 1012.9 | |
| 20260503052148 | 57 | 0.0 | 0.0 | 0.00 | 0.00 | 0.00 | 82 | 1012.9 | |
| 20260503051028 | 56 | 0.0 | 0.0 | 0.00 | 0.00 | 0.00 | 85 | 1012.8 | |
| 20260503050028 | 55 | 0.0 | 0.0 | 0.00 | 0.00 | 0.00 | 89 | 1013.0 | |
| 20260503045027 | 53 | 0.0 | 0.0 | 0.00 | 0.00 | 0.00 | 90 | 1013.0 | |
| 20260503044047 | 52 | 0.0 | 0.0 | 0.00 | 0.00 | 0.00 | 90 | 1012.8 | |
| 20260503043026 | 52 | 0.0 | 0.0 | 0.00 | 0.00 | 0.00 | 90 | 1012.8 | |
| 20260503042027 | 51 | 0.0 | 0.0 | 0.00 | 0.00 | 0.00 | 91 | 1012.8 | |
| 20260503041047 | 51 | 0.0 | 0.0 | 0.00 | 0.00 | 0.00 | 91 | 1012.8 | |
| 20260503040026 | 51 | 0.0 | 0.0 | 0.00 | 0.00 | 0.00 | 90 | 1013.0 | |
| 20260503035046 | 51 | 0.0 | 0.0 | 0.00 | 0.00 | 0.00 | 90 | 1012.9 | |
| 20260503034106 | 51 | 0.0 | 0.0 | 0.00 | 0.00 | 0.00 | 90 | 1012.9 | |
| 20260503033026 | 52 | 0.0 | 0.0 | 0.00 | 0.00 | 0.00 | 89 | 1012.9 | |
| 20260503032027 | 52 | 0.0 | 0.0 | 0.00 | 0.00 | 0.00 | 89 | 1012.8 | |
| 20260503031026 | 52 | 0.0 | 0.0 | 0.00 | 0.00 | 0.00 | 89 | 1013.0 | |
| 20260503030027 | 52 | 0.0 | 0.0 | 0.00 | 0.00 | 0.00 | 89 | 1013.2 | |
| 20260503025026 | 52 | 0.0 | 0.0 | 0.00 | 0.00 | 0.00 | 89 | 1013.3 | |
| 20260503024027 | 52 | 0.0 | 0.0 | 0.00 | 0.00 | 0.00 | 88 | 1013.5 | |
| 20260503023027 | 52 | 0.0 | 0.0 | 0.00 | 0.00 | 0.00 | 87 | 1013.6 | |
| 20260503022026 | 53 | 0.0 | 0.0 | 0.00 | 0.00 | 0.00 | 87 | 1013.5 | |
| 20260503021026 | 53 | 0.0 | 0.0 | 0.00 | 0.00 | 0.00 | 87 | 1013.8 | |
| 20260503020027 | 53 | 0.0 | 0.0 | 0.00 | 0.00 | 0.00 | 87 | 1013.9 | |
| 20260503015027 | 53 | 0.0 | 0.0 | 0.00 | 0.00 | 0.00 | 87 | 1014.1 | |
| 20260503014027 | 54 | 0.0 | 0.0 | 0.00 | 0.00 | 0.00 | 86 | 1014.2 | |
| 20260503013026 | 54 | 0.0 | 0.0 | 0.00 | 0.00 | 0.00 | 87 | 1014.1 | |
| 20260503012027 | 54 | 0.0 | 0.0 | 0.00 | 0.00 | 0.00 | 87 | 1014.1 | |
| 20260503011026 | 53 | 0.0 | 0.0 | 0.00 | 0.00 | 0.00 | 87 | 1014.3 | |
| 20260503010026 | 53 | 0.0 | 0.0 | 0.00 | 0.00 | 0.00 | 87 | 1014.3 | |
| 20260503005026 | 53 | 0.0 | 0.0 | 0.00 | 0.00 | 0.00 | 86 | 1014.5 | |
| 20260503004026 | 53 | 315 | 3.5 | 7.0 | 0.00 | 0.00 | 0.00 | 86 | 1014.7 |
| 20260503003026 | 53 | 0 | 6.1 | 12.2 | 0.00 | 0.00 | 0.00 | 85 | 1014.8 |
| 20260503002026 | 53 | 0.0 | 0.0 | 0.00 | 0.00 | 0.00 | 84 | 1014.2 | |
| 20260503001046 | 53 | 0.0 | 0.0 | 0.00 | 0.00 | 0.00 | 84 | 1014.2 | |
| 20260503000026 | 53 | 0.0 | 0.0 | 0.00 | 0.00 | 0.00 | 83 | 1014.1 | |
| 20260502235026 | 54 | 0.0 | 0.0 | 0.00 | 0.00 | 0.00 | 83 | 1014.2 | |
| 20260502234026 | 54 | 0.0 | 0.0 | 0.00 | 0.00 | 0.00 | 82 | 1014.2 | |
| 20260502233026 | 55 | 0.0 | 0.0 | 0.00 | 0.00 | 0.00 | 81 | 1014.3 | |
| 20260502232026 | 55 | 0.0 | 0.0 | 0.00 | 0.00 | 0.00 | 80 | 1014.3 | |
| 20260502231026 | 56 | 0.0 | 0.0 | 0.00 | 0.00 | 0.00 | 80 | 1014.4 | |
| 20260502230026 | 56 | 0.0 | 3.5 | 0.00 | 0.00 | 0.00 | 79 | 1014.5 | |
| 20260502225026 | 57 | 338 | 2.6 | 3.5 | 0.00 | 0.00 | 0.00 | 79 | 1014.6 |
| 20260502224026 | 57 | 0.0 | 0.0 | 0.00 | 0.00 | 0.00 | 79 | 1014.6 | |
| 20260502223026 | 58 | 0.0 | 0.0 | 0.00 | 0.00 | 0.00 | 77 | 1014.6 | |
| 20260502222026 | 58 | 0.0 | 0.0 | 0.00 | 0.00 | 0.00 | 77 | 1014.7 | |
| 20260502221026 | 58 | 293 | 2.6 | 5.2 | 0.00 | 0.00 | 0.00 | 77 | 1014.7 |
| 20260502220026 | 58 | 293 | 3.5 | 5.2 | 0.00 | 0.00 | 0.00 | 76 | 1014.6 |
| 20260502215026 | 58 | 0 | 3.5 | 5.2 | 0.00 | 0.00 | 0.00 | 75 | 1014.6 |